Regional Weather Roundup
Issued by NWS

Home | Current Version | Previous Version | Graphics & Text | Print | Product List | Glossary On
Versions: 1 2 3 4 5 6 7 8 9 10 11 12 13 14 15 16 17 18 19 20 21 22 23 24 25 26 27 28 29 30 31 32 33 34 35 36 37 38 39 40 41 42 43 44 45 46 47 48 49 50
000
ASUS43 KMPX 020810
RWRMN
WEATHER ROUNDUP FOR MINNESOTA
NATIONAL WEATHER SERVICE TWIN CITIES/CHANHASSEN MN
300 AM CDT SUN AUG 02 2015


NOTE: "FAIR" INDICATES FEW OR NO CLOUDS BELOW 12,000 FEET WITH NO
SIGNIFICANT WEATHER AND/OR OBSTRUCTIONS TO VISIBILITY. N/A MEANS
CURRENT SKY AND/OR WEATHER CONDITIONS ARE NOT AVAILABLE.

MNZ060>063-068>070-020900-
   Twin Cities Metro

CITY           SKY/WX    TMP DP  RH WIND       PRES   REMARKS
TWIN CITIES    PTCLDY    75  65  70 SW13      29.71F
ST PAUL        CLEAR     74  65  73 SW10      29.71F
CRYSTAL        CLEAR     75  65  70 SW10      29.69F
BLAINE         CLEAR     75  66  73 SW7       29.70F
LAKEVILLE      CLEAR     70  64  83 SW3       29.73F
EDEN PRAIRIE   PTCLDY    72  65  78 SW8       29.71F
SOUTH ST PAUL  CLEAR     75  63  64 SW8       29.71F
LAKE ELMO      FAIR      72  64  78 SW6       29.72F
$$
MNZ001>005-007-008-013>017-022>024-027-028-020900-
   Northwest Minnesota

CITY           SKY/WX    TMP DP  RH WIND       PRES   REMARKS
BEMIDJI        CLOUDY    64  60  86 N7        29.71R
HALLOCK        CLOUDY    63  61  94 N5        29.66F
ROSEAU         CLOUDY    63  57  82 N3        29.68F
WARROAD        CLOUDY    63  57  82 W7        29.69R
THIEF RVR FALL MOCLDY    66  57  72 NE5       29.69F
CROOKSTON      PTCLDY    68  61  77 NE8       29.69F
FOSSTON        MOCLDY    63  61  94 CALM      29.71R
DETROIT LAKES  MOCLDY    68  66  94 CALM      29.69R
MOORHEAD       PTCLDY    64  63  94 CALM      29.66S
PARK RAPIDS    MOCLDY    68  63  84 N5        29.69R
MAHNOMEN       FAIR      65  63  90 SE5       29.68F
$$
MNZ006-009>011-018-025>026-020900-
   North Central Minnesota

CITY           SKY/WX    TMP DP  RH WIND       PRES   REMARKS
BAUDETTE       MOCLDY    61  58  90 W6        29.68R
FLAG ISLAND    MOCLDY    68  61  77 N7        29.66S
INTL FALLS     CLOUDY    61  59  93 W5        29.66F
WASKISH        CLOUDY    63  59  88 CALM      29.68F
BIG FORK       CLOUDY    64  55  72 NW3       29.71F
LONGVILLE      PTCLDY    64  63  94 CALM      29.69S
GRAND RAPIDS   CLOUDY    66  61  82 N3        29.70S
CRANE LAKE     CLOUDY    61  57  88 SW5       29.72R
ORR            RAIN      61  55  82 NW9G17    29.72S
COOK           RAIN      61  57  88 NW5       29.73R
WALKER         FAIR      63  61  95 W3        29.69F
$$
MNZ012-019>021-037-020900-
   Northeast Minnesota

CITY           SKY/WX    TMP DP  RH WIND       PRES   REMARKS
DULUTH         MOCLDY    67  59  75 W7        29.67F
ELY            LGT RAIN  63  57  82 W7        29.69R
HIBBING        CLOUDY    60  56  86 CALM      29.69R
EVELETH        MOCLDY    63  57  82 W6        29.71R
DULUTH HARBOR  MOCLDY    66  63  88 W3        29.65S
TWO HARBORS    MOCLDY    64  61  88 SW3       29.64F
SILVER BAY     MOCLDY    61  55  82 CALM      29.63F
GRAND MARAIS     N/A     50  45  83 SW3       29.61F
G MARAIS ARPRT   N/A     61  52  72 W5        29.66F
$$
MNZ029>031-032-039>041-046>048-054>057-064-020900-
   West Central Minnesota

CITY           SKY/WX    TMP DP  RH WIND       PRES   REMARKS
FERGUS FALLS   PTCLDY    70  64  83 CALM      29.65F
WHEATON        PTCLDY    66  64  94 SW8       29.67S
MORRIS         FAIR      66  64  94 SW7       29.66R
ALEXANDRIA     CLEAR     70  64  81 S13       29.66F
ELBOW LAKE     FAIR      67  65  94 CALM      29.67R
WADENA         PTCLDY    66  64  94 CALM      29.66S
GLENWOOD       CLEAR     66  63  88 S9        29.66F
APPLETON       CLEAR     70  63  78 S6        29.65F
BENSON         CLEAR     66  63  88 SW8       29.65F
ORTONVILLE     CLEAR     68  63  83 CALM      29.66S
MADISON        CLEAR     70  63  78 SW9       29.66F
WILLMAR        FAIR      64  63  94 SE5       29.70F
$$
MNZ033>034-036-042>043-049>051-058-059-020900-
   Central Minnesota

CITY           SKY/WX    TMP DP  RH WIND       PRES   REMARKS
ST CLOUD       CLEAR     67  64  90 S7        29.68F
SAUK CENTRE    FAIR      66  64  91 S8        29.65F
PAYNESVILLE    CLEAR     66  63  90 SE6       29.69F
AITKIN         PTCLDY    66  61  82 NW5       29.66R
PINE RIVER     PTCLDY    64  63  94 NW6       29.75R
BRAINERD       CLEAR     68  65  90 NW5       29.66F
STAPLES        PTCLDY    66  64  94 CALM      29.68R
LONG PRAIRIE   FAIR      64  63  94 SE9       29.65F
LITTLE FALLS   CLEAR     68  63  83 S5        29.65F
LITCHFIELD     CLEAR     70  66  88 S3        29.71F
BUFFALO        CLEAR     70  64  81 S5        29.71F
MAPLE LAKE     CLEAR     70  66  88 S5        29.71F
$$
MNZ037-044-045-052-053-020900-
   East Central Minnesota

CITY           SKY/WX    TMP DP  RH WIND       PRES   REMARKS
PRINCETON      CLEAR     72  64  78 S7        29.68F
MORA           CLEAR     70  63  78 S8        29.68F
CAMBRIDGE      CLEAR     73  63  68 S7        29.67F
RUSH CITY      PTCLDY    71  64  79 SW6       29.69S
MOOSE LAKE     CLEAR     61  59  94 CALM      29.64F
HINCKLEY       FAIR      66  64  94 S6        29.66F
CLOQUET        PTCLDY    66  59  77 SW7       29.67S
MCGREGOR       PTCLDY    63  61  94 CALM      29.67S
$$
MNZ071>073-080-081-089-090-097-098-020900-
   Southwest Minnesota

CITY           SKY/WX    TMP DP  RH WIND       PRES   REMARKS
MONTEVIDEO     CLEAR     66  61  82 SW9       29.69F
GRANITE FALLS  CLEAR     69  63  80 SW8       29.71F
CANBY          CLEAR     72  62  71 SW12      29.70F
MARSHALL       CLEAR     72  61  68 SW17      29.74F
REDWOOD FALLS  CLEAR     71  65  81 SW12      29.71F
OLIVIA         CLEAR     68  63  83 SW8       29.70F
PIPESTONE      CLEAR     66  63  88 SW7       29.79F
WINDOM         CLEAR     72  63  73 SW12G17   29.78F
WORTHINGTON    CLEAR     70  61  73 SW12      29.81F
JACKSON        PTCLDY    70  64  83 SW12      29.81F
TRACY          CLEAR     72  66  83 SW14      29.76F
SLAYTON        CLEAR     68  64  88 SW10      29.80S
$$
MNZ065>067-074>077-082>085-091>093-020900-
   South Central Minnesota

CITY           SKY/WX    TMP DP  RH WIND       PRES   REMARKS
MANKATO        CLOUDY    73  63  68 SW15      29.75F
NEW ULM        PTCLDY    70  64  83 SW10      29.73F
ST JAMES       CLEAR     73  64  73 S9        29.77S
FAIRMONT       PTCLDY    73  61  64 SW12G17   29.79S
GLENCOE        PTCLDY    69  67  93 S6        29.72F
FARIBAULT      PTCLDY    70  66  88 S7        29.75F
OWATONNA       PTCLDY    70  64  83 SW12      29.77F THUNDER
WASECA         TSTM      70  64  83 SW10G16   29.79F
ALBERT LEA     CLOUDY    72  66  83 SW7       29.79F
$$
MNZ078>079-086>088-094>096-020900-
   Southeast Minnesota

CITY           SKY/WX    TMP DP  RH WIND       PRES   REMARKS
ROCHESTER      CLEAR     71  66  84 SW15      29.79F
RED WING       CLEAR     73  66  78 W9        29.72F
STANTON        CLEAR     71  65  80 SW10      29.73F
DODGE CENTER   PTCLDY    70  66  88 SW13      29.78F
WINONA         PTCLDY    73  68  83 SW8       29.76F
AUSTIN         PTCLDY    70  66  88 SW8       29.79F
PRESTON        CLEAR     69  66  91 SW7       29.80F
$$
ABBREVIATIONS USED IN REMARKS
   TC - TEMPERATURES IN CELSIUS
  WCI - WIND CHILL INDEX
   HX - HEAT INDEX
  VSB - VISIBILITY
$$



USA.gov is the U.S. government's official web portal to all federal, state and local government web resources and services.